Minatare, NE

4:37 PM MST on February 05, 2016 (GMT -0700)
Heilig

Weather History for KBFF - April, 2013

Change the Weather History Date:

Thursday, April 11, 2013

  Actual Average Record
Temperature  
Mean Temperature 23 °F 45 °F  
Max Temperature 41 °F 60 °F 85 °F (1985)
Min Temperature 4 °F 30 °F 4 °F (2013)
Degree Days  
Heating Degree Days 42 20  
Month to date heating degree days 268 235  
Since 1 July heating degree days 5606 5976  
Cooling Degree Days 0 0  
Month to date cooling degree days 0 0  
Year to date cooling degree days 0 0  
Moisture  
Dew Point 18 °F    
Average Humidity 75    
Maximum Humidity 92    
Minimum Humidity 58    
Precipitation  
Precipitation 0.01 in 0.06 in 1.48 in (1943)
Month to date precipitation 0.81 0.59  
Year to date precipitation 1.56 2.60  
Snow  
Snow T in 0.20 in 4.70 in (1957)
Month to date snowfall 5.9 2.5  
Since 1 July snowfall 28.8 38.7  
Snow Depth 7.00 in    
Sea Level Pressure  
Sea Level Pressure 29.91 in    
Wind  
Wind Speed 11 mph (NW)    
Max Wind Speed 25 mph    
Max Gust Speed 32 mph    
Visibility 10 miles    
Events Snow    
T = Trace of Precipitation, MM = Missing Value Source: NWS Daily Summary

Daily Weather History Graph

Daily Weather History Graph

Search for Another Location

Airport or City:

Trip Planner

Search our weather history database for the weather conditions in past years. The results will help you decide how hot, cold, wet, or windy it might be!

Date:

Astronomy

Apr. 11, 2013 Rise Set
Actual Time 6:20 AM MDT 7:31 PM MDT
Civil Twilight 5:51 AM MDT 8:00 PM MDT
Nautical Twilight 5:17 AM MDT 8:34 PM MDT
Astronomical Twilight 4:41 AM MDT 9:10 PM MDT
Moon 6:51 AM MDT (4/11) 9:09 PM MDT (4/11)
Length of Visible Light 14h 08m
Length of Day
13h 11m
New Moon, 2% of the Moon is Illuminated
Apr 11
New Moon
Apr 18
First Quarter
Apr 25
Full
May 2
Last Quarter
May 9
New

Hourly Weather History & Observations

Time (MDT) Temp. Windchill Dew Point Humidity Pressure Visibility Wind Dir Wind Speed Gust Speed Precip Events Conditions
12:53 AM 12.9 °F - 10.9 °F 92% 30.04 in 10.0 mi Calm Calm - N/A   Clear
1:53 AM 8.1 °F 1.4 °F 5.0 °F 87% 30.02 in 10.0 mi North 3.5 mph - N/A   Clear
2:53 AM 7.0 °F -7.5 °F 5.0 °F 92% 29.98 in 10.0 mi NNE 10.4 mph - N/A   Clear
3:53 AM 8.1 °F -5.3 °F 5.0 °F 87% 29.94 in 10.0 mi NNE 9.2 mph - N/A   Clear
4:53 AM 5.0 °F -4.1 °F 1.9 °F 87% 29.95 in 10.0 mi NW 4.6 mph - N/A   Clear
5:53 AM 3.9 °F -5.3 °F 1.0 °F 88% 29.94 in 10.0 mi North 4.6 mph - N/A   Clear
6:53 AM 5.0 °F -10.0 °F 1.9 °F 87% 29.94 in 10.0 mi WNW 10.4 mph - N/A   Clear
7:38 AM 6.8 °F -8.6 °F 3.2 °F 85% 29.78 in 8.0 mi WNW 11.5 mph - N/A   Mostly Cloudy
7:53 AM 8.1 °F -6.2 °F 5.0 °F 87% 29.93 in 9.0 mi WNW 10.4 mph - N/A   Mostly Cloudy
8:08 AM 10.4 °F -4.1 °F 6.8 °F 85% 29.77 in 10.0 mi NW 11.5 mph - N/A   Mostly Cloudy
8:53 AM 16.0 °F 2.3 °F 10.0 °F 77% 29.92 in 10.0 mi NW 12.7 mph - N/A   Mostly Cloudy
9:53 AM 17.1 °F 5.0 °F 12.9 °F 84% 29.93 in 2.5 mi NW 10.4 mph - 0.00 in Snow Light Snow
10:12 AM 17.6 °F 5.7 °F 14.0 °F 86% 29.79 in 6.0 mi WNW 10.4 mph - 0.01 in Snow Light Snow
10:53 AM 19.4 °F 9.5 °F 15.8 °F 86% 29.80 in 10.0 mi West 8.1 mph - N/A   Overcast
11:53 AM 26.1 °F 21.9 °F 17.1 °F 69% 29.93 in 10.0 mi West 3.5 mph - N/A   Overcast
12:53 PM 30.9 °F - 18.0 °F 59% 29.91 in 10.0 mi Calm Calm - N/A   Overcast
1:53 PM 34.0 °F 28.8 °F 21.0 °F 59% 29.91 in 10.0 mi West 5.8 mph - N/A   Scattered Clouds
2:53 PM 35.1 °F 28.6 °F 24.1 °F 64% 29.90 in 10.0 mi NW 8.1 mph - N/A   Overcast
3:14 PM 35.6 °F 27.1 °F 26.6 °F 70% 29.76 in 10.0 mi WNW 12.7 mph - N/A   Overcast
3:27 PM 35.6 °F 27.1 °F 28.4 °F 75% 29.76 in 10.0 mi WNW 12.7 mph 19.6 mph N/A   Overcast
3:53 PM 36.0 °F 28.5 °F 28.9 °F 76% 29.88 in 10.0 mi WNW 10.4 mph - N/A   Mostly Cloudy
4:53 PM 39.0 °F 30.6 °F 32.0 °F 76% 29.89 in 10.0 mi WNW 15.0 mph - N/A   Overcast
5:53 PM 39.9 °F 31.8 °F 33.1 °F 77% 29.91 in 10.0 mi NW 15.0 mph - N/A   Partly Cloudy
6:53 PM 39.0 °F 29.0 °F 33.1 °F 79% 29.92 in 10.0 mi NNW 20.7 mph 25.3 mph N/A   Mostly Cloudy
7:53 PM 37.9 °F 28.2 °F 33.1 °F 83% 29.93 in 10.0 mi NW 18.4 mph - N/A   Clear
8:53 PM 37.0 °F 28.9 °F 32.0 °F 82% 29.93 in 10.0 mi WNW 12.7 mph - N/A   Clear
9:53 PM 37.0 °F 28.5 °F 33.1 °F 86% 29.95 in 10.0 mi NW 13.8 mph - N/A   Overcast
10:53 PM 36.0 °F 27.5 °F 30.9 °F 82% 29.95 in 10.0 mi NW 12.7 mph - N/A   Mostly Cloudy
11:53 PM 35.1 °F 25.9 °F 30.9 °F 85% 29.93 in 10.0 mi NW 13.8 mph - N/A   Clear